User: anonymous   Login
Location: Nebula Knoll Observatory
(43.6666°N, 71.0000°W)
Time: 06:54:16
(UTC-05:00)
Language:

SeaSat 1 - Orbit

View from above orbital plane
View from above orbital plane
View from above satellite
View from above satellite

Ground track
Ground track

The orbit data is extracted from the following two-line orbital elements,

1 10967U 78064A   16341.83446790  .00000022  00000-0  46832-4 0  9995
2 10967 108.0025 257.5073 0002370 257.6619 102.4260 14.43603331 18842
Epoch (UTC): 06 December 2016 20:01:38
Eccentricity: 0.0002370
inclination: 108.0025°
perigee height: 745 km
apogee height: 748 km
right ascension of ascending node: 257.5073°
argument of perigee: 257.6619°
revolutions per day: 14.43603331
mean anomaly at epoch: 102.4260°
orbit number at epoch: 1884

The dashed part of the orbit path shows where the satellite is in the earth's shadow,  

DLR